Location: Newark
(40.9833°N, 0.0333°W)
Time: 16:02:35
(UTC+00:00)

Transit 4A - Pass Details

Date: 05 November 2020
Orbit: 862 x 982 km, 66.8° (Epoch: 28 November)

Event Time Altitude Azimuth Distance (km) Brightness Sun altitude
Rises 14:42:52 0° 249° (WSW) 3,613 12.2 19.6°
Reaches altitude 10° 14:45:55 10° 263° (W) 2,689 11.3 19.2°
Maximum altitude 14:50:55 24° 316° (NW) 1,882 9.7 18.5°
Drops below altitude 10° 14:56:02 10° 9° (N) 2,738 10.0 17.8°
Sets 14:59:11 0° 23° (NNE) 3,694 10.5 17.3°
